Location: Newark
(28.1667°N, 17.3333°W)
Time: 18:47:11
(UTC+00:00)

Hubble Space Telescope - Visible Passes

Search period start: 22 April 2019 00:00
Search period end: 02 May 2019 00:00
Orbit: 537 x 540 km, 28.5° (Epoch: 21 April)

Date Brightness Start Highest point End Pass type
(mag) Time Alt. Az. Time Alt. Az. Time Alt. Az.
22 Apr 2.4 05:03:45 21° S 05:04:24 22° SSE 05:07:37 10° ESE visible
23 Apr 2.1 04:53:49 27° SSE 04:53:50 27° SSE 04:57:23 10° E visible
24 Apr 2.0 04:43:50 32° SE 04:43:50 32° SE 04:47:03 10° E visible
25 Apr 2.0 04:33:49 34° ESE 04:33:49 34° ESE 04:36:40 10° E visible
25 Apr 0.8 06:09:41 10° W 06:13:50 88° S 06:18:00 10° E visible
26 Apr 2.2 04:23:46 32° ESE 04:23:46 32° ESE 04:26:14 10° E visible
26 Apr 0.8 05:59:13 10° W 06:03:22 87° N 06:07:30 10° E visible
27 Apr 2.6 04:13:44 27° E 04:13:44 27° E 04:15:47 10° E visible
27 Apr 0.8 05:49:04 12° W 05:52:53 85° N 05:57:02 10° E visible
28 Apr 2.9 04:03:42 23° E 04:03:42 23° E 04:05:19 10° E visible
28 Apr 0.8 05:39:02 15° W 05:42:25 85° N 05:46:34 10° E visible
29 Apr 3.3 03:53:42 18° E 03:53:42 18° E 03:54:50 10° E visible
29 Apr 0.7 05:29:01 19° W 05:31:56 87° N 05:36:05 10° E visible
30 Apr 3.6 03:43:44 14° E 03:43:44 14° E 03:44:22 10° E visible
30 Apr 0.7 05:19:04 24° W 05:21:28 89° S 05:25:36 10° E visible
01 May 3.9 03:33:50 10° E 03:33:50 10° E 03:33:53 10° E visible
01 May 0.6 05:09:11 33° W 05:10:58 82° S 05:15:07 10° E visible
